Retour au catalogue

STARLINK-32417

ActifCommunicationsVLEO
NORAD 61673·PAYLOAD·🇺🇸 United States

Lancé Oct 26, 2024 depuis Cape Canaveral Space Force Station

Loading…

Prochains Passages (prochaines 24 heures)

TLE

FraisSource: CelesTrak SupGP

Époque: Sep 14, 2026, 14:31 UTC

1 61673C 24193N   26257.60534722  .00023806  00000+0  76573-3 0  2579
2 61673  53.1584 292.2359 0001152  80.6505  94.4287 15.31682876    18

Suivez STARLINK-32417 en temps réel avec AllMySat

Download on the App Store